Time,TemperatureF,DewpointF,PressureIn,WindDirection,WindDirectionDegrees,WindSpeedMPH,WindSpeedGustMPH,Humidity,HourlyPrecipIn,Conditions,Clouds,dailyrainin,SoftwareType,DateUTC
2013-08-18 00:01:00,80.0,58.6,29.99,ENE,62,0.0,4.0,48,0.00,,SKC,0.00,VWS V14.01,2013-08-18 05:01:00,
2013-08-18 00:06:00,79.8,58.4,29.99,ENE,62,0.0,3.0,48,0.00,,SKC,0.00,VWS V14.01,2013-08-18 05:06:00,
2013-08-18 00:11:00,79.7,58.9,29.99,ENE,62,0.0,3.0,49,0.00,,SKC,0.00,VWS V14.01,2013-08-18 05:11:00,
2013-08-18 00:16:00,79.5,58.7,29.99,ENE,62,0.0,3.0,49,0.00,,SKC,0.00,VWS V14.01,2013-08-18 05:16:00,
2013-08-18 00:21:00,79.4,58.6,29.99,ENE,62,0.0,3.0,49,0.00,,SKC,0.00,VWS V14.01,2013-08-18 05:21:00,
2013-08-18 00:26:00,79.2,59.0,29.99,ENE,62,0.0,3.0,50,0.00,,SKC,0.00,VWS V14.01,2013-08-18 05:26:00,
2013-08-18 00:31:00,79.0,58.8,30.00,ENE,62,0.0,3.0,50,0.00,,SKC,0.00,VWS V14.01,2013-08-18 05:31:00,
2013-08-18 00:36:00,78.8,58.6,30.00,ENE,62,0.0,1.0,50,0.00,,SKC,0.00,VWS V14.01,2013-08-18 05:36:00,
2013-08-18 00:41:00,78.6,59.0,30.00,ENE,62,0.0,1.0,51,0.00,,SKC,0.00,VWS V14.01,2013-08-18 05:41:00,
2013-08-18 00:46:00,78.4,58.8,30.00,ENE,62,0.0,1.0,51,0.00,,SKC,0.00,VWS V14.01,2013-08-18 05:46:00,
2013-08-18 00:51:00,78.2,58.6,29.99,ENE,62,0.0,1.0,51,0.00,,SKC,0.00,VWS V14.01,2013-08-18 05:51:00,
2013-08-18 00:56:00,77.9,58.9,30.00,ENE,62,0.0,1.0,52,0.00,,SKC,0.00,VWS V14.01,2013-08-18 05:56:00,
2013-08-18 01:01:00,77.7,58.7,29.99,ENE,62,0.0,1.0,52,0.00,,SKC,0.00,VWS V14.01,2013-08-18 06:01:00,
2013-08-18 01:06:00,77.5,58.5,30.00,ENE,62,0.0,2.0,52,0.00,,SKC,0.00,VWS V14.01,2013-08-18 06:06:00,
2013-08-18 01:11:00,77.3,58.8,30.00,ENE,62,0.0,2.0,53,0.00,,SKC,0.00,VWS V14.01,2013-08-18 06:11:00,
2013-08-18 01:16:00,77.2,58.8,30.00,ENE,62,0.0,2.0,53,0.00,,SKC,0.00,VWS V14.01,2013-08-18 06:16:00,
2013-08-18 01:21:00,77.1,58.7,30.00,ENE,62,0.0,2.0,53,0.00,,SKC,0.00,VWS V14.01,2013-08-18 06:21:00,
2013-08-18 01:26:00,77.0,58.6,30.00,ENE,62,0.0,2.0,53,0.00,,SKC,0.00,VWS V14.01,2013-08-18 06:26:00,
2013-08-18 01:31:00,76.8,58.4,30.00,ENE,62,0.0,2.0,53,0.00,,SKC,0.00,VWS V14.01,2013-08-18 06:31:00,
2013-08-18 01:36:00,76.7,58.3,30.00,ENE,62,0.0,0.0,53,0.00,,SKC,0.00,VWS V14.01,2013-08-18 06:36:00,
2013-08-18 01:41:00,76.6,58.7,30.00,ENE,62,0.0,0.0,54,0.00,,SKC,0.00,VWS V14.01,2013-08-18 06:41:00,
2013-08-18 01:46:00,76.5,58.6,30.00,ENE,62,0.0,0.0,54,0.00,,SKC,0.00,VWS V14.01,2013-08-18 06:46:00,
2013-08-18 01:51:00,76.4,58.5,30.00,ENE,62,0.0,0.0,54,0.00,,SKC,0.00,VWS V14.01,2013-08-18 06:51:00,
2013-08-18 01:56:00,76.2,58.9,30.00,ENE,62,0.0,0.0,55,0.00,,SKC,0.00,VWS V14.01,2013-08-18 06:56:00,
2013-08-18 02:01:00,76.0,58.7,30.00,ENE,62,0.0,0.0,55,0.00,,SKC,0.00,VWS V14.01,2013-08-18 07:01:00,
2013-08-18 02:06:00,75.8,58.5,30.00,ENE,62,0.0,0.0,55,0.00,,SKC,0.00,VWS V14.01,2013-08-18 07:06:00,
2013-08-18 02:11:00,75.7,58.4,29.99,ENE,62,0.0,1.0,55,0.00,,SKC,0.00,VWS V14.01,2013-08-18 07:11:00,
2013-08-18 02:16:00,75.6,58.3,29.99,ENE,62,0.0,1.0,55,0.00,,SKC,0.00,VWS V14.01,2013-08-18 07:16:00,
2013-08-18 02:21:00,75.5,58.2,30.00,ENE,62,0.0,1.0,55,0.00,,SKC,0.00,VWS V14.01,2013-08-18 07:21:00,
2013-08-18 02:26:00,75.4,58.1,30.00,ENE,62,0.0,1.0,55,0.00,,SKC,0.00,VWS V14.01,2013-08-18 07:26:00,
2013-08-18 02:31:00,75.4,58.1,30.00,ENE,62,0.0,1.0,55,0.00,,SKC,0.00,VWS V14.01,2013-08-18 07:31:00,
2013-08-18 02:36:00,75.3,58.5,29.99,ENE,62,0.0,0.0,56,0.00,,SKC,0.00,VWS V14.01,2013-08-18 07:36:00,
2013-08-18 02:41:00,75.3,58.5,30.00,ENE,62,0.0,0.0,56,0.00,,SKC,0.00,VWS V14.01,2013-08-18 07:41:00,
2013-08-18 02:46:00,75.1,58.8,29.99,ENE,62,0.0,0.0,57,0.00,,SKC,0.00,VWS V14.01,2013-08-18 07:46:00,
2013-08-18 02:51:00,75.0,58.8,29.99,ENE,62,0.0,0.0,57,0.00,,SKC,0.00,VWS V14.01,2013-08-18 07:51:00,
2013-08-18 02:56:00,74.8,58.6,29.99,ENE,62,0.0,0.0,57,0.00,,SKC,0.00,VWS V14.01,2013-08-18 07:56:00,
2013-08-18 03:01:00,74.5,58.8,29.99,ENE,62,0.0,1.0,58,0.00,,SKC,0.00,VWS V14.01,2013-08-18 08:01:00,
2013-08-18 03:06:00,74.3,58.6,29.99,ENE,62,0.0,0.0,58,0.00,,SKC,0.00,VWS V14.01,2013-08-18 08:06:00,
2013-08-18 03:11:00,74.2,58.5,29.99,ENE,62,0.0,0.0,58,0.00,,SKC,0.00,VWS V14.01,2013-08-18 08:11:00,
2013-08-18 03:16:00,74.1,58.9,29.99,ENE,62,0.0,0.0,59,0.00,,SKC,0.00,VWS V14.01,2013-08-18 08:16:00,
2013-08-18 03:21:00,73.9,58.7,29.99,ENE,62,0.0,0.0,59,0.00,,SKC,0.00,VWS V14.01,2013-08-18 08:21:00,
2013-08-18 03:26:00,73.8,58.6,29.99,ENE,62,0.0,0.0,59,0.00,,SKC,0.00,VWS V14.01,2013-08-18 08:26:00,
2013-08-18 03:31:00,73.7,58.5,29.99,ENE,62,0.0,0.0,59,0.00,,SKC,0.00,VWS V14.01,2013-08-18 08:31:00,
2013-08-18 03:36:00,73.6,58.9,29.99,ENE,62,0.0,1.0,60,0.00,,SKC,0.00,VWS V14.01,2013-08-18 08:36:00,
2013-08-18 03:41:00,73.5,58.8,29.98,ENE,62,0.0,1.0,60,0.00,,SKC,0.00,VWS V14.01,2013-08-18 08:41:00,
2013-08-18 03:46:00,73.5,58.8,29.99,ENE,62,0.0,1.0,60,0.00,,SKC,0.00,VWS V14.01,2013-08-18 08:46:00,
2013-08-18 03:51:00,73.5,58.8,29.99,ENE,62,0.0,1.0,60,0.00,,SKC,0.00,VWS V14.01,2013-08-18 08:51:00,
2013-08-18 03:56:00,73.4,58.7,29.98,ENE,62,0.0,1.0,60,0.00,,SKC,0.00,VWS V14.01,2013-08-18 08:56:00,
2013-08-18 04:01:00,73.3,59.0,29.99,ENE,62,0.0,1.0,61,0.00,,SKC,0.00,VWS V14.01,2013-08-18 09:01:00,
2013-08-18 04:06:00,73.2,59.0,29.98,ENE,62,0.0,0.0,61,0.00,,SKC,0.00,VWS V14.01,2013-08-18 09:06:00,
2013-08-18 04:11:00,73.1,58.9,29.99,ENE,62,0.0,0.0,61,0.00,,SKC,0.00,VWS V14.01,2013-08-18 09:11:00,
2013-08-18 04:16:00,73.0,58.8,29.98,ENE,62,0.0,0.0,61,0.00,,SKC,0.00,VWS V14.01,2013-08-18 09:16:00,
2013-08-18 04:21:00,72.8,59.0,29.99,ENE,62,0.0,0.0,62,0.00,,SKC,0.00,VWS V14.01,2013-08-18 09:21:00,
2013-08-18 04:26:00,72.7,58.9,29.99,ENE,62,0.0,0.0,62,0.00,,SKC,0.00,VWS V14.01,2013-08-18 09:26:00,
2013-08-18 04:31:00,72.6,58.8,29.99,ENE,62,0.0,0.0,62,0.00,,SKC,0.00,VWS V14.01,2013-08-18 09:31:00,
2013-08-18 04:36:00,72.4,58.7,29.98,ENE,62,0.0,0.0,62,0.00,,SKC,0.00,VWS V14.01,2013-08-18 09:36:00,
2013-08-18 04:41:00,72.3,58.6,29.99,ENE,62,0.0,0.0,62,0.00,,SKC,0.00,VWS V14.01,2013-08-18 09:41:00,
2013-08-18 04:46:00,72.1,58.8,29.99,ENE,62,0.0,0.0,63,0.00,,SKC,0.00,VWS V14.01,2013-08-18 09:46:00,
2013-08-18 04:51:00,72.0,58.7,29.98,ENE,62,0.0,0.0,63,0.00,,SKC,0.00,VWS V14.01,2013-08-18 09:51:00,
2013-08-18 04:56:00,71.9,59.1,29.99,ENE,62,0.0,0.0,64,0.00,,SKC,0.00,VWS V14.01,2013-08-18 09:56:00,
2013-08-18 05:01:00,71.8,59.0,29.99,ENE,62,0.0,0.0,64,0.00,,SKC,0.00,VWS V14.01,2013-08-18 10:01:00,
2013-08-18 05:06:00,71.6,58.8,29.98,ENE,62,0.0,0.0,64,0.00,,SKC,0.00,VWS V14.01,2013-08-18 10:06:00,
2013-08-18 05:11:00,71.5,58.7,29.99,ENE,62,0.0,0.0,64,0.00,,SKC,0.00,VWS V14.01,2013-08-18 10:11:00,
2013-08-18 05:16:00,71.4,58.6,29.99,ENE,62,0.0,0.0,64,0.00,,SKC,0.00,VWS V14.01,2013-08-18 10:16:00,
2013-08-18 05:21:00,71.3,58.5,29.98,ENE,62,0.0,0.0,64,0.00,,SKC,0.00,VWS V14.01,2013-08-18 10:21:00,
2013-08-18 05:26:00,71.2,58.8,29.99,ENE,62,0.0,0.0,65,0.00,,SKC,0.00,VWS V14.01,2013-08-18 10:26:00,
2013-08-18 05:31:00,71.1,58.8,29.99,ENE,62,0.0,0.0,65,0.00,,SKC,0.00,VWS V14.01,2013-08-18 10:31:00,
2013-08-18 05:36:00,71.1,58.8,29.99,ENE,62,0.0,0.0,65,0.00,,SKC,0.00,VWS V14.01,2013-08-18 10:36:00,
2013-08-18 05:41:00,71.0,59.1,29.99,ENE,62,0.0,0.0,66,0.00,,SKC,0.00,VWS V14.01,2013-08-18 10:41:00,
2013-08-18 05:46:00,70.9,59.0,29.99,ENE,62,0.0,0.0,66,0.00,,SKC,0.00,VWS V14.01,2013-08-18 10:46:00,
2013-08-18 05:51:00,70.9,59.0,29.99,ENE,62,0.0,0.0,66,0.00,,SKC,0.00,VWS V14.01,2013-08-18 10:51:00,
2013-08-18 05:56:00,70.8,58.9,29.99,ENE,62,0.0,0.0,66,0.00,,SKC,0.00,VWS V14.01,2013-08-18 10:56:00,
2013-08-18 06:01:00,70.7,58.8,29.99,ENE,62,0.0,0.0,66,0.00,,SKC,0.00,VWS V14.01,2013-08-18 11:01:00,
2013-08-18 06:06:00,70.5,58.6,29.99,ENE,62,0.0,1.0,66,0.00,,SKC,0.00,VWS V14.01,2013-08-18 11:06:00,
2013-08-18 06:11:00,70.5,58.6,30.00,ENE,62,0.0,1.0,66,0.00,,SKC,0.00,VWS V14.01,2013-08-18 11:11:00,
2013-08-18 06:16:00,70.4,58.5,30.00,ENE,62,0.0,1.0,66,0.00,,SKC,0.00,VWS V14.01,2013-08-18 11:16:00,
2013-08-18 06:21:00,70.4,58.9,30.00,ENE,62,0.0,1.0,67,0.00,,SKC,0.00,VWS V14.01,2013-08-18 11:21:00,
2013-08-18 06:26:00,70.4,58.9,30.00,ENE,62,0.0,1.0,67,0.00,,SKC,0.00,VWS V14.01,2013-08-18 11:26:00,
2013-08-18 06:31:00,70.4,58.9,30.00,ENE,62,0.0,1.0,67,0.00,,SKC,0.00,VWS V14.01,2013-08-18 11:31:00,
2013-08-18 06:36:00,70.4,58.9,30.00,ENE,62,0.0,0.0,67,0.00,,SKC,0.00,VWS V14.01,2013-08-18 11:36:00,
2013-08-18 06:41:00,70.4,58.9,30.00,ENE,62,0.0,0.0,67,0.00,,SKC,0.00,VWS V14.01,2013-08-18 11:41:00,
2013-08-18 06:46:00,70.5,59.0,30.00,ENE,62,0.0,0.0,67,0.00,,SKC,0.00,VWS V14.01,2013-08-18 11:46:00,
2013-08-18 06:51:00,70.4,59.3,30.00,ENE,62,0.0,0.0,68,0.00,,SKC,0.00,VWS V14.01,2013-08-18 11:51:00,
2013-08-18 06:56:00,70.4,59.3,30.00,ENE,62,0.0,0.0,68,0.00,,SKC,0.00,VWS V14.01,2013-08-18 11:56:00,
2013-08-18 07:00:00,70.3,59.2,30.00,ENE,62,0.0,0.0,68,0.00,,SKC,0.00,VWS V14.01,2013-08-18 12:00:00,
2013-08-18 07:01:00,70.3,59.2,30.00,ENE,62,0.0,0.0,68,0.00,,SKC,0.00,VWS V14.01,2013-08-18 12:01:00,
2013-08-18 07:06:00,70.2,59.2,30.01,NW,324,0.0,1.0,68,0.00,,SKC,0.00,VWS V14.01,2013-08-18 12:06:00,
2013-08-18 07:11:00,70.1,59.5,30.01,South,175,0.0,1.0,69,0.00,,SKC,0.00,VWS V14.01,2013-08-18 12:11:00,
2013-08-18 07:16:00,69.9,59.3,30.01,South,175,0.0,1.0,69,0.00,,SKC,0.00,VWS V14.01,2013-08-18 12:16:00,
2013-08-18 07:21:00,69.9,59.3,30.01,South,175,0.0,1.0,69,0.00,,SKC,0.00,VWS V14.01,2013-08-18 12:21:00,
2013-08-18 07:26:00,69.7,59.5,30.01,South,175,0.0,1.0,70,0.00,,SKC,0.00,VWS V14.01,2013-08-18 12:26:00,
2013-08-18 07:30:00,69.6,59.4,30.01,South,175,0.0,1.0,70,0.00,,SKC,0.00,VWS V14.01,2013-08-18 12:30:00,
2013-08-18 07:31:00,69.6,59.4,30.01,South,175,0.0,1.0,70,0.00,,SKC,0.00,VWS V14.01,2013-08-18 12:31:00,
2013-08-18 07:36:00,69.5,59.3,30.02,South,175,0.0,0.0,70,0.00,,SKC,0.00,VWS V14.01,2013-08-18 12:36:00,
2013-08-18 07:41:00,69.5,59.3,30.01,South,175,0.0,0.0,70,0.00,,SKC,0.00,VWS V14.01,2013-08-18 12:41:00,
2013-08-18 07:46:00,69.5,59.7,30.02,South,175,0.0,1.0,71,0.00,,SKC,0.00,VWS V14.01,2013-08-18 12:46:00,
2013-08-18 07:51:00,69.6,59.4,30.02,South,175,0.0,1.0,70,0.00,,SKC,0.00,VWS V14.01,2013-08-18 12:51:00,
2013-08-18 07:56:00,69.8,59.6,30.02,South,175,0.0,1.0,70,0.00,,SKC,0.00,VWS V14.01,2013-08-18 12:56:00,
2013-08-18 08:00:00,70.0,60.2,30.02,South,175,0.0,1.0,71,0.00,,SKC,0.00,VWS V14.01,2013-08-18 13:00:00,
2013-08-18 08:01:00,69.9,60.1,30.02,South,175,0.0,1.0,71,0.00,,SKC,0.00,VWS V14.01,2013-08-18 13:01:00,
2013-08-18 08:06:00,70.3,60.5,30.02,South,175,0.0,0.0,71,0.00,,SKC,0.00,VWS V14.01,2013-08-18 13:06:00,
2013-08-18 08:11:00,70.7,60.5,30.03,South,175,0.0,0.0,70,0.00,,SKC,0.00,VWS V14.01,2013-08-18 13:11:00,
2013-08-18 08:16:00,71.3,61.0,30.03,South,175,0.0,0.0,70,0.00,,SKC,0.00,VWS V14.01,2013-08-18 13:16:00,
2013-08-18 08:21:00,72.0,61.3,30.03,South,175,0.0,1.0,69,0.00,,SKC,0.00,VWS V14.01,2013-08-18 13:21:00,
2013-08-18 08:26:00,72.5,61.3,30.02,South,175,0.0,1.0,68,0.00,,SKC,0.00,VWS V14.01,2013-08-18 13:26:00,
2013-08-18 08:30:00,73.3,61.7,30.03,South,175,0.0,1.0,67,0.00,,SKC,0.00,VWS V14.01,2013-08-18 13:30:00,
2013-08-18 08:31:00,73.2,62.0,30.03,South,176,0.0,1.0,68,0.00,,SKC,0.00,VWS V14.01,2013-08-18 13:31:00,
2013-08-18 08:36:00,74.0,62.4,30.02,South,175,0.0,0.0,67,0.00,,SKC,0.00,VWS V14.01,2013-08-18 13:36:00,
2013-08-18 08:41:00,74.7,62.6,30.02,South,175,0.0,0.0,66,0.00,,SKC,0.00,VWS V14.01,2013-08-18 13:41:00,
2013-08-18 08:46:00,75.5,63.4,30.03,South,175,0.0,0.0,66,0.00,,SKC,0.00,VWS V14.01,2013-08-18 13:46:00,
2013-08-18 08:51:00,76.2,63.6,30.03,South,176,0.0,0.0,65,0.00,,SKC,0.00,VWS V14.01,2013-08-18 13:51:00,
2013-08-18 08:56:00,77.0,63.9,30.03,South,175,0.0,0.0,64,0.00,,SKC,0.00,VWS V14.01,2013-08-18 13:56:00,
2013-08-18 09:00:00,78.0,65.3,30.04,South,178,0.0,1.0,65,0.00,,SKC,0.00,VWS V14.01,2013-08-18 14:00:00,
2013-08-18 09:01:00,77.9,65.2,30.04,South,178,0.0,1.0,65,0.00,,SKC,0.00,VWS V14.01,2013-08-18 14:01:00,
2013-08-18 09:06:00,78.9,65.7,30.04,South,178,0.0,0.0,64,0.00,,SKC,0.00,VWS V14.01,2013-08-18 14:06:00,
2013-08-18 09:11:00,79.6,65.4,30.04,South,178,0.0,0.0,62,0.00,,SKC,0.00,VWS V14.01,2013-08-18 14:11:00,
2013-08-18 09:16:00,80.3,66.1,30.04,South,178,0.0,0.0,62,0.00,,SKC,0.00,VWS V14.01,2013-08-18 14:16:00,
2013-08-18 09:21:00,81.2,67.4,30.04,South,176,5.0,5.0,63,0.00,,SKC,0.00,VWS V14.01,2013-08-18 14:21:00,
2013-08-18 09:26:00,81.8,67.5,30.04,South,176,0.0,5.0,62,0.00,,SKC,0.00,VWS V14.01,2013-08-18 14:26:00,
2013-08-18 09:30:00,82.2,67.4,30.04,South,176,0.0,5.0,61,0.00,,SKC,0.00,VWS V14.01,2013-08-18 14:30:00,
2013-08-18 09:31:00,82.1,67.3,30.04,South,176,0.0,5.0,61,0.00,,SKC,0.00,VWS V14.01,2013-08-18 14:31:00,
2013-08-18 09:36:00,82.4,67.6,30.04,South,175,2.0,5.0,61,0.00,,SKC,0.00,VWS V14.01,2013-08-18 14:36:00,
2013-08-18 09:41:00,82.5,67.7,30.04,South,176,0.0,5.0,61,0.00,,SKC,0.00,VWS V14.01,2013-08-18 14:41:00,
2013-08-18 09:46:00,82.5,67.7,30.04,South,180,3.0,5.0,61,0.00,,SKC,0.00,VWS V14.01,2013-08-18 14:46:00,
2013-08-18 09:51:00,82.5,67.7,30.04,South,177,0.0,5.0,61,0.00,,SKC,0.00,VWS V14.01,2013-08-18 14:51:00,
2013-08-18 09:56:00,82.7,67.4,30.05,South,178,2.0,5.0,60,0.00,,SKC,0.00,VWS V14.01,2013-08-18 14:56:00,
2013-08-18 10:00:00,82.9,67.6,30.05,South,179,3.0,5.0,60,0.00,,SKC,0.00,VWS V14.01,2013-08-18 15:00:00,
2013-08-18 10:01:00,82.9,67.6,30.05,South,179,2.0,5.0,60,0.00,,SKC,0.00,VWS V14.01,2013-08-18 15:01:00,
2013-08-18 10:06:00,83.1,67.3,30.05,South,179,0.0,5.0,59,0.00,,SKC,0.00,VWS V14.01,2013-08-18 15:06:00,
2013-08-18 10:11:00,83.2,66.9,30.05,South,184,3.0,5.0,58,0.00,,SKC,0.00,VWS V14.01,2013-08-18 15:11:00,
2013-08-18 10:16:00,83.3,67.0,30.05,SSW,196,4.0,7.0,58,0.00,,SKC,0.00,VWS V14.01,2013-08-18 15:16:00,
2013-08-18 10:21:00,83.3,67.0,30.05,SSW,210,3.0,8.0,58,0.00,,SKC,0.00,VWS V14.01,2013-08-18 15:21:00,
2013-08-18 10:26:00,83.2,66.9,30.05,SW,215,2.0,8.0,58,0.00,,SKC,0.00,VWS V14.01,2013-08-18 15:26:00,
2013-08-18 10:30:00,83.5,67.2,30.05,SW,219,4.0,8.0,58,0.00,,SKC,0.00,VWS V14.01,2013-08-18 15:30:00,
2013-08-18 10:31:00,83.5,67.2,30.05,SW,221,3.0,8.0,58,0.00,,SKC,0.00,VWS V14.01,2013-08-18 15:31:00,
2013-08-18 10:36:00,83.8,67.0,30.05,SW,223,1.0,7.0,57,0.00,,SKC,0.00,VWS V14.01,2013-08-18 15:36:00,
2013-08-18 10:41:00,84.2,66.8,30.05,SW,223,2.0,7.0,56,0.00,,SKC,0.00,VWS V14.01,2013-08-18 15:41:00,
2013-08-18 10:46:00,84.5,66.6,30.05,SW,223,1.0,7.0,55,0.00,,SKC,0.00,VWS V14.01,2013-08-18 15:46:00,
2013-08-18 10:51:00,84.7,66.8,30.05,SW,223,0.0,7.0,55,0.00,,SKC,0.00,VWS V14.01,2013-08-18 15:51:00,
2013-08-18 10:56:00,85.0,67.0,30.05,SW,236,1.0,7.0,55,0.00,,SKC,0.00,VWS V14.01,2013-08-18 15:56:00,
2013-08-18 11:00:00,85.6,67.1,30.05,SW,223,5.0,10.0,54,0.00,,SKC,0.00,VWS V14.01,2013-08-18 16:00:00,
2013-08-18 11:01:00,85.4,67.4,30.05,SW,228,2.0,7.0,55,0.00,,SKC,0.00,VWS V14.01,2013-08-18 16:01:00,
2013-08-18 11:06:00,86.0,67.4,30.05,SW,225,0.0,5.0,54,0.00,,SKC,0.00,VWS V14.01,2013-08-18 16:06:00,
2013-08-18 11:11:00,86.5,67.3,30.05,SW,224,3.0,5.0,53,0.00,,SKC,0.00,VWS V14.01,2013-08-18 16:11:00,
2013-08-18 11:16:00,86.7,67.5,30.05,SW,225,0.0,5.0,53,0.00,,SKC,0.00,VWS V14.01,2013-08-18 16:16:00,
2013-08-18 11:21:00,87.3,67.0,30.05,SW,224,1.0,7.0,51,0.00,,SKC,0.00,VWS V14.01,2013-08-18 16:21:00,
2013-08-18 11:26:00,87.5,67.2,30.05,SW,226,1.0,7.0,51,0.00,,SKC,0.00,VWS V14.01,2013-08-18 16:26:00,
2013-08-18 11:30:00,87.7,67.9,30.05,SW,228,0.0,7.0,52,0.00,,SKC,0.00,VWS V14.01,2013-08-18 16:30:00,
2013-08-18 11:31:00,87.6,67.2,30.05,SW,228,0.0,7.0,51,0.00,,SKC,0.00,VWS V14.01,2013-08-18 16:31:00,
2013-08-18 11:36:00,88.2,67.2,30.05,SW,228,0.0,3.0,50,0.00,,SKC,0.00,VWS V14.01,2013-08-18 16:36:00,
2013-08-18 11:41:00,88.4,67.4,30.05,SW,230,0.0,6.0,50,0.00,,SKC,0.00,VWS V14.01,2013-08-18 16:41:00,
2013-08-18 11:46:00,88.5,67.5,30.05,WSW,240,4.0,6.0,50,0.00,,SKC,0.00,VWS V14.01,2013-08-18 16:46:00,
2013-08-18 11:51:00,88.5,66.9,30.05,WSW,240,0.0,6.0,49,0.00,,SKC,0.00,VWS V14.01,2013-08-18 16:51:00,
2013-08-18 11:56:00,88.9,67.3,30.04,WSW,240,0.0,6.0,49,0.00,,SKC,0.00,VWS V14.01,2013-08-18 16:56:00,
2013-08-18 12:00:00,88.6,67.0,30.04,WSW,245,0.0,9.0,49,0.00,,SKC,0.00,VWS V14.01,2013-08-18 17:00:00,
2013-08-18 12:30:00,90.8,67.2,30.04,SW,225,2.0,7.0,46,0.00,,SKC,0.00,VWS V14.01,2013-08-18 17:30:00,
2013-08-18 13:00:00,91.4,66.4,30.03,NNW,338,2.0,9.0,44,0.00,,SKC,0.00,VWS V14.01,2013-08-18 18:00:00,
2013-08-18 13:30:00,93.3,66.1,30.02,SW,225,2.0,11.0,41,0.00,,SKC,0.00,VWS V14.01,2013-08-18 18:30:00,
2013-08-18 14:00:00,94.1,66.1,30.02,SSW,202,1.0,11.0,40,0.00,,SKC,0.00,VWS V14.01,2013-08-18 19:00:00,
2013-08-18 14:35:00,94.1,66.1,30.02,SSW,202,1.0,11.0,40,0.00,,SKC,0.00,VWS V14.01,2013-08-18 19:35:00,
2013-08-18 14:40:00,92.1,65.0,30.00,SSE,161,0.0,6.0,41,0.00,,SKC,0.00,VWS V14.01,2013-08-18 19:40:00,
2013-08-18 14:45:00,92.3,65.2,30.00,SSE,161,0.0,6.0,41,0.00,,SKC,0.00,VWS V14.01,2013-08-18 19:45:00,
2013-08-18 14:50:00,92.6,65.5,30.00,SSE,165,6.0,7.0,41,0.00,,SKC,0.00,VWS V14.01,2013-08-18 19:50:00,
2013-08-18 14:55:00,92.9,65.0,30.00,South,169,0.0,7.0,40,0.00,,SKC,0.00,VWS V14.01,2013-08-18 19:55:00,
2013-08-18 15:00:00,93.2,64.6,29.99,SSE,166,0.0,7.0,39,0.00,,SKC,0.00,VWS V14.01,2013-08-18 20:00:00,
2013-08-18 15:05:00,93.6,64.9,29.99,NNE,32,3.0,7.0,39,0.00,,SKC,0.00,VWS V14.01,2013-08-18 20:05:00,
2013-08-18 15:10:00,93.8,64.4,29.99,NNE,33,0.0,7.0,38,0.00,,SKC,0.00,VWS V14.01,2013-08-18 20:10:00,
2013-08-18 15:15:00,94.4,64.9,29.99,SSE,156,2.0,10.0,38,0.00,,SKC,0.00,VWS V14.01,2013-08-18 20:15:00,
2013-08-18 15:20:00,94.7,64.4,29.99,SE,146,4.0,10.0,37,0.00,,SKC,0.00,VWS V14.01,2013-08-18 20:20:00,
2013-08-18 15:25:00,94.7,64.4,29.99,SE,144,0.0,10.0,37,0.00,,SKC,0.00,VWS V14.01,2013-08-18 20:25:00,
2013-08-18 15:30:00,95.0,63.9,29.98,NE,47,3.0,10.0,36,0.00,,SKC,0.00,VWS V14.01,2013-08-18 20:30:00,
2013-08-18 15:35:00,94.8,64.5,29.98,NE,53,0.0,6.0,37,0.00,,SKC,0.00,VWS V14.01,2013-08-18 20:35:00,
2013-08-18 15:40:00,94.7,63.6,29.99,East,91,0.0,11.0,36,0.00,,SKC,0.00,VWS V14.01,2013-08-18 20:40:00,
2013-08-18 15:45:00,94.6,63.5,29.99,East,91,0.0,11.0,36,0.00,,SKC,0.00,VWS V14.01,2013-08-18 20:45:00,
2013-08-18 15:50:00,94.8,64.5,29.99,East,91,0.0,11.0,37,0.00,,SKC,0.00,VWS V14.01,2013-08-18 20:50:00,
2013-08-18 15:55:00,95.0,64.7,29.98,East,100,0.0,11.0,37,0.00,,SKC,0.00,VWS V14.01,2013-08-18 20:55:00,
2013-08-18 16:00:00,95.0,63.9,29.98,ENE,65,5.0,11.0,36,0.00,,SKC,0.00,VWS V14.01,2013-08-18 21:00:00,
2013-08-18 16:05:00,94.7,64.4,29.98,NE,51,1.0,7.0,37,0.00,,SKC,0.00,VWS V14.01,2013-08-18 21:05:00,
2013-08-18 16:10:00,94.5,63.4,29.98,NE,51,0.0,7.0,36,0.00,,SKC,0.00,VWS V14.01,2013-08-18 21:10:00,
2013-08-18 16:15:00,94.5,64.2,29.98,NE,46,0.0,7.0,37,0.00,,SKC,0.00,VWS V14.01,2013-08-18 21:15:00,
2013-08-18 16:20:00,94.7,64.4,29.97,ENE,68,3.0,7.0,37,0.00,,SKC,0.00,VWS V14.01,2013-08-18 21:20:00,
2013-08-18 16:25:00,94.7,63.6,29.97,East,80,1.0,9.0,36,0.00,,SKC,0.00,VWS V14.01,2013-08-18 21:25:00,
2013-08-18 16:30:00,94.7,63.6,29.97,East,80,0.0,9.0,36,0.00,,SKC,0.00,VWS V14.01,2013-08-18 21:30:00,
2013-08-18 16:35:00,94.7,62.8,29.97,East,82,1.0,8.0,35,0.00,,SKC,0.00,VWS V14.01,2013-08-18 21:35:00,
2013-08-18 16:40:00,94.8,62.9,29.97,East,79,0.0,8.0,35,0.00,,SKC,0.00,VWS V14.01,2013-08-18 21:40:00,
2013-08-18 16:45:00,95.1,63.2,29.97,ESE,104,7.0,8.0,35,0.00,,SKC,0.00,VWS V14.01,2013-08-18 21:45:00,
2013-08-18 16:50:00,95.4,63.4,29.96,SE,129,1.0,8.0,35,0.00,,SKC,0.00,VWS V14.01,2013-08-18 21:50:00,
2013-08-18 16:55:00,95.5,63.5,29.96,East,91,0.0,9.0,35,0.00,,SKC,0.00,VWS V14.01,2013-08-18 21:55:00,
2013-08-18 17:00:00,95.3,62.5,29.96,East,93,3.0,9.0,34,0.00,,SKC,0.00,VWS V14.01,2013-08-18 22:00:00,
2013-08-18 17:05:00,95.1,62.3,29.96,East,96,0.0,5.0,34,0.00,,SKC,0.00,VWS V14.01,2013-08-18 22:05:00,
2013-08-18 17:10:00,94.9,63.0,29.96,ENE,75,3.0,7.0,35,0.00,,SKC,0.00,VWS V14.01,2013-08-18 22:10:00,
2013-08-18 17:15:00,94.7,62.8,29.96,East,82,6.0,11.0,35,0.00,,SKC,0.00,VWS V14.01,2013-08-18 22:15:00,
2013-08-18 17:20:00,94.6,61.9,29.96,East,81,0.0,11.0,34,0.00,,SKC,0.00,VWS V14.01,2013-08-18 22:20:00,
2013-08-18 17:25:00,94.5,62.6,29.96,ENE,75,0.0,11.0,35,0.00,,SKC,0.00,VWS V14.01,2013-08-18 22:25:00,
2013-08-18 17:30:00,94.5,62.6,29.95,ENE,66,5.0,11.0,35,0.00,,SKC,0.00,VWS V14.01,2013-08-18 22:30:00,
2013-08-18 17:35:00,94.5,62.6,29.95,NE,55,6.0,6.0,35,0.00,,SKC,0.00,VWS V14.01,2013-08-18 22:35:00,
2013-08-18 17:40:00,94.5,62.6,29.95,East,91,4.0,7.0,35,0.00,,SKC,0.00,VWS V14.01,2013-08-18 22:40:00,
2013-08-18 17:45:00,94.7,62.8,29.95,SSE,148,4.0,9.0,35,0.00,,SKC,0.00,VWS V14.01,2013-08-18 22:45:00,
2013-08-18 17:50:00,94.7,62.8,29.95,ESE,105,2.0,9.0,35,0.00,,SKC,0.00,VWS V14.01,2013-08-18 22:50:00,
2013-08-18 17:55:00,94.7,62.8,29.95,NE,51,1.0,9.0,35,0.00,,SKC,0.00,VWS V14.01,2013-08-18 22:55:00,
2013-08-18 18:00:00,94.7,62.8,29.95,East,90,10.0,11.0,35,0.00,,SKC,0.00,VWS V14.01,2013-08-18 23:00:00,
2013-08-18 18:05:00,94.5,62.6,29.95,ENE,78,2.0,6.0,35,0.00,,SKC,0.00,VWS V14.01,2013-08-18 23:05:00,
2013-08-18 18:10:00,94.5,62.6,29.95,ENE,74,0.0,6.0,35,0.00,,SKC,0.00,VWS V14.01,2013-08-18 23:10:00,
2013-08-18 18:15:00,94.3,62.5,29.95,East,87,0.0,6.0,35,0.00,,SKC,0.00,VWS V14.01,2013-08-18 23:15:00,
2013-08-18 18:20:00,94.2,62.4,29.95,East,85,0.0,6.0,35,0.00,,SKC,0.00,VWS V14.01,2013-08-18 23:20:00,
2013-08-18 18:25:00,94.0,63.0,29.96,East,84,2.0,6.0,36,0.00,,SKC,0.00,VWS V14.01,2013-08-18 23:25:00,
2013-08-18 18:30:00,93.9,62.9,29.95,East,88,0.0,7.0,36,0.00,,SKC,0.00,VWS V14.01,2013-08-18 23:30:00,
2013-08-18 18:35:00,93.9,62.9,29.95,East,85,0.0,5.0,36,0.00,,SKC,0.00,VWS V14.01,2013-08-18 23:35:00,
2013-08-18 18:40:00,93.8,63.6,29.95,East,84,2.0,5.0,37,0.00,,SKC,0.00,VWS V14.01,2013-08-18 23:40:00,
2013-08-18 18:45:00,93.8,63.6,29.95,East,79,5.0,5.0,37,0.00,,SKC,0.00,VWS V14.01,2013-08-18 23:45:00,
2013-08-18 18:50:00,93.7,63.5,29.95,East,85,3.0,6.0,37,0.00,,SKC,0.00,VWS V14.01,2013-08-18 23:50:00,
2013-08-18 18:55:00,93.6,63.4,29.95,East,93,5.0,7.0,37,0.00,,SKC,0.00,VWS V14.01,2013-08-18 23:55:00,
2013-08-18 19:00:00,93.2,63.8,29.95,ENE,78,0.0,9.0,38,0.00,,SKC,0.00,VWS V14.01,2013-08-19 00:00:00,
2013-08-18 19:05:00,93.0,63.7,29.95,ENE,74,4.0,5.0,38,0.00,,SKC,0.00,VWS V14.01,2013-08-19 00:05:00,
2013-08-18 19:10:00,92.8,63.5,29.95,ENE,78,3.0,6.0,38,0.00,,SKC,0.00,VWS V14.01,2013-08-19 00:10:00,
2013-08-18 19:15:00,92.6,63.3,29.95,East,81,1.0,6.0,38,0.00,,SKC,0.00,VWS V14.01,2013-08-19 00:15:00,
2013-08-18 19:20:00,92.4,63.1,29.95,ENE,78,0.0,6.0,38,0.00,,SKC,0.00,VWS V14.01,2013-08-19 00:20:00,
2013-08-18 19:25:00,92.2,63.0,29.95,East,80,0.0,6.0,38,0.00,,SKC,0.00,VWS V14.01,2013-08-19 00:25:00,
2013-08-18 19:30:00,92.0,62.8,29.95,ENE,78,0.0,6.0,38,0.00,,SKC,0.00,VWS V14.01,2013-08-19 00:30:00,
2013-08-18 19:35:00,91.8,63.3,29.95,ENE,78,0.0,2.0,39,0.00,,SKC,0.00,VWS V14.01,2013-08-19 00:35:00,
2013-08-18 19:40:00,91.6,63.2,29.95,ENE,78,0.0,4.0,39,0.00,,SKC,0.00,VWS V14.01,2013-08-19 00:40:00,
2013-08-18 19:45:00,91.4,63.0,29.95,East,79,3.0,4.0,39,0.00,,SKC,0.00,VWS V14.01,2013-08-19 00:45:00,
2013-08-18 19:50:00,91.1,62.7,29.95,East,80,0.0,5.0,39,0.00,,SKC,0.00,VWS V14.01,2013-08-19 00:50:00,
2013-08-18 19:55:00,90.9,63.3,29.95,East,80,0.0,5.0,40,0.00,,SKC,0.00,VWS V14.01,2013-08-19 00:55:00,
2013-08-18 20:00:00,90.6,63.0,29.95,East,81,0.0,5.0,40,0.00,,SKC,0.00,VWS V14.01,2013-08-19 01:00:00,
2013-08-18 20:05:00,90.4,62.8,29.95,East,81,3.0,4.0,40,0.00,,SKC,0.00,VWS V14.01,2013-08-19 01:05:00,
2013-08-18 20:10:00,90.1,62.5,29.95,East,80,0.0,4.0,40,0.00,,SKC,0.00,VWS V14.01,2013-08-19 01:10:00,
2013-08-18 20:15:00,89.8,62.3,29.96,East,81,0.0,4.0,40,0.00,,SKC,0.00,VWS V14.01,2013-08-19 01:15:00,
2013-08-18 20:20:00,89.5,62.0,29.96,East,81,0.0,4.0,40,0.00,,SKC,0.00,VWS V14.01,2013-08-19 01:20:00,
2013-08-18 20:25:00,89.3,61.8,29.96,East,81,0.0,4.0,40,0.00,,SKC,0.00,VWS V14.01,2013-08-19 01:25:00,
2013-08-18 20:30:00,89.1,62.4,29.96,East,81,0.0,4.0,41,0.00,,SKC,0.00,VWS V14.01,2013-08-19 01:30:00,
2013-08-18 20:35:00,88.8,62.1,29.96,East,81,0.0,1.0,41,0.00,,SKC,0.00,VWS V14.01,2013-08-19 01:35:00,
2013-08-18 20:40:00,88.6,62.6,29.96,East,81,0.0,1.0,42,0.00,,SKC,0.00,VWS V14.01,2013-08-19 01:40:00,
2013-08-18 20:45:00,88.4,62.4,29.96,East,81,0.0,1.0,42,0.00,,SKC,0.00,VWS V14.01,2013-08-19 01:45:00,
2013-08-18 20:50:00,88.1,62.8,29.96,East,81,0.0,1.0,43,0.00,,SKC,0.00,VWS V14.01,2013-08-19 01:50:00,
2013-08-18 20:55:00,87.9,62.6,29.96,East,81,0.0,1.0,43,0.00,,SKC,0.00,VWS V14.01,2013-08-19 01:55:00,
2013-08-18 21:00:00,87.6,63.0,29.96,East,81,0.0,1.0,44,0.00,,SKC,0.00,VWS V14.01,2013-08-19 02:00:00,
2013-08-18 21:05:00,87.4,62.8,29.96,East,81,0.0,0.0,44,0.00,,SKC,0.00,VWS V14.01,2013-08-19 02:05:00,
2013-08-18 21:10:00,87.1,62.6,29.96,East,81,0.0,0.0,44,0.00,,SKC,0.00,VWS V14.01,2013-08-19 02:10:00,
2013-08-18 21:15:00,86.7,62.8,29.96,East,81,0.0,0.0,45,0.00,,SKC,0.00,VWS V14.01,2013-08-19 02:15:00,
2013-08-18 21:20:00,86.4,62.6,29.96,East,81,0.0,0.0,45,0.00,,SKC,0.00,VWS V14.01,2013-08-19 02:20:00,
2013-08-18 21:25:00,86.1,62.9,29.97,East,81,0.0,0.0,46,0.00,,SKC,0.00,VWS V14.01,2013-08-19 02:25:00,
2013-08-18 21:30:00,85.8,62.7,29.97,East,81,0.0,0.0,46,0.00,,SKC,0.00,VWS V14.01,2013-08-19 02:30:00,
2013-08-18 21:35:00,85.5,63.0,29.96,East,81,0.0,0.0,47,0.00,,SKC,0.00,VWS V14.01,2013-08-19 02:35:00,
2013-08-18 21:40:00,85.2,62.7,29.97,East,81,0.0,0.0,47,0.00,,SKC,0.00,VWS V14.01,2013-08-19 02:40:00,
2013-08-18 21:45:00,84.9,63.0,29.97,East,81,0.0,0.0,48,0.00,,SKC,0.00,VWS V14.01,2013-08-19 02:45:00,
2013-08-18 21:50:00,84.6,62.8,29.97,East,81,0.0,0.0,48,0.00,,SKC,0.00,VWS V14.01,2013-08-19 02:50:00,
2013-08-18 21:55:00,84.4,62.6,29.97,East,81,0.0,0.0,48,0.00,,SKC,0.00,VWS V14.01,2013-08-19 02:55:00,
2013-08-18 22:00:00,84.1,62.9,29.97,East,81,0.0,0.0,49,0.00,,SKC,0.00,VWS V14.01,2013-08-19 03:00:00,
2013-08-18 22:05:00,83.9,62.7,29.97,East,81,0.0,0.0,49,0.00,,SKC,0.00,VWS V14.01,2013-08-19 03:05:00,
2013-08-18 22:10:00,83.8,62.6,29.97,East,81,0.0,0.0,49,0.00,,SKC,0.00,VWS V14.01,2013-08-19 03:10:00,
2013-08-18 22:15:00,83.6,62.4,29.97,East,81,0.0,0.0,49,0.00,,SKC,0.00,VWS V14.01,2013-08-19 03:15:00,
2013-08-18 22:20:00,83.4,62.3,29.97,East,81,0.0,1.0,49,0.00,,SKC,0.00,VWS V14.01,2013-08-19 03:20:00,
2013-08-18 22:25:00,83.2,62.7,29.97,East,81,0.0,2.0,50,0.00,,SKC,0.00,VWS V14.01,2013-08-19 03:25:00,
2013-08-18 22:30:00,83.0,62.5,29.97,East,81,0.0,2.0,50,0.00,,SKC,0.00,VWS V14.01,2013-08-19 03:30:00,
2013-08-18 22:35:00,82.8,62.8,29.98,East,81,0.0,1.0,51,0.00,,SKC,0.00,VWS V14.01,2013-08-19 03:35:00,
2013-08-18 22:40:00,82.5,62.6,29.98,SSE,153,6.0,10.0,51,0.00,,SKC,0.00,VWS V14.01,2013-08-19 03:40:00,
2013-08-18 22:45:00,82.4,63.6,29.99,SSE,149,1.0,10.0,53,0.00,,SKC,0.00,VWS V14.01,2013-08-19 03:45:00,
2013-08-18 22:50:00,82.5,63.7,30.00,SSE,148,5.0,10.0,53,0.00,,SKC,0.00,VWS V14.01,2013-08-19 03:50:00,
2013-08-18 22:55:00,82.6,64.3,29.99,SSE,148,2.0,10.0,54,0.00,,SKC,0.00,VWS V14.01,2013-08-19 03:55:00,
2013-08-18 23:00:00,82.7,64.9,30.00,SSE,148,4.0,10.0,55,0.00,,SKC,0.00,VWS V14.01,2013-08-19 04:00:00,
2013-08-18 23:01:00,82.7,64.9,30.00,SSE,148,2.0,10.0,55,0.00,,SKC,0.00,VWS V14.01,2013-08-19 04:01:00,
2013-08-18 23:06:00,82.7,64.9,29.99,SSE,148,2.0,6.0,55,0.00,,SKC,0.00,VWS V14.01,2013-08-19 04:06:00,
2013-08-18 23:11:00,82.6,65.3,29.99,SSE,148,2.0,8.0,56,0.00,,SKC,0.00,VWS V14.01,2013-08-19 04:11:00,
2013-08-18 23:16:00,82.5,65.2,29.99,SSE,148,3.0,8.0,56,0.00,,SKC,0.00,VWS V14.01,2013-08-19 04:16:00,
2013-08-18 23:21:00,82.4,65.7,29.99,SSE,148,0.0,8.0,57,0.00,,SKC,0.00,VWS V14.01,2013-08-19 04:21:00,
2013-08-18 23:26:00,82.3,65.6,29.99,SSE,148,0.0,8.0,57,0.00,,SKC,0.00,VWS V14.01,2013-08-19 04:26:00,
2013-08-18 23:31:00,82.2,65.5,29.99,SSE,148,0.0,8.0,57,0.00,,SKC,0.00,VWS V14.01,2013-08-19 04:31:00,
2013-08-18 23:36:00,82.1,65.9,30.00,SSE,148,0.0,4.0,58,0.00,,SKC,0.00,VWS V14.01,2013-08-19 04:36:00,
2013-08-18 23:41:00,81.9,65.7,29.99,SSE,148,3.0,4.0,58,0.00,,SKC,0.00,VWS V14.01,2013-08-19 04:41:00,
2013-08-18 23:46:00,81.8,65.6,29.99,SSE,148,0.0,5.0,58,0.00,,SKC,0.00,VWS V14.01,2013-08-19 04:46:00,
2013-08-18 23:51:00,81.7,66.0,29.99,SSE,148,0.0,5.0,59,0.00,,SKC,0.00,VWS V14.01,2013-08-19 04:51:00,
2013-08-18 23:56:00,81.6,65.9,30.00,SSE,148,0.0,5.0,59,0.00,,SKC,0.00,VWS V14.01,2013-08-19 04:56:00,